Location: Chequamegon National Forest
(46.1070°N, 90.8420°W)
Time: 16:17:14
(UTC-06:00)

ISS - All Passes

Search period start: 10 December 2016 00:00
Search period end: 20 December 2016 00:00
Orbit: 401 x 409 km, 51.6° (Epoch: 10 December)

Date Brightness Start Highest point End Pass type
(mag) Time Alt. Az. Time Alt. Az. Time Alt. Az.
10 Dec - 13:53:13 10° S 13:55:14 15° SE 13:57:17 10° E daylight
10 Dec - 15:28:03 10° WSW 15:31:20 89° NW 15:34:39 10° ENE daylight
10 Dec - 17:05:06 10° WNW 17:08:07 32° N 17:11:09 10° ENE visible
10 Dec - 18:42:04 10° WNW 18:45:09 35° NNE 18:48:15 10° E visible
10 Dec - 20:18:33 10° WNW 20:21:51 70° SSW 20:25:08 10° SE night (unlit)
10 Dec - 21:56:42 10° WSW 21:57:49 11° SW 21:58:56 10° SSW night (unlit)
11 Dec - 14:36:09 10° SW 14:39:22 55° SSE 14:42:37 10° ENE daylight
11 Dec - 16:12:51 10° W 16:15:59 38° NNW 16:19:07 10° ENE daylight
11 Dec - 17:50:01 10° WNW 17:53:00 31° N 17:56:00 10° ENE visible
11 Dec - 19:26:32 10° WNW 19:29:51 74° NNE 19:33:10 10° ESE visible
11 Dec - 21:03:35 10° W 21:06:03 20° SW 21:08:31 10° S night (unlit)
12 Dec - 13:44:30 10° SSW 13:47:28 32° SE 13:50:27 10° ENE daylight
12 Dec - 15:20:39 10° W 15:23:52 51° NNW 15:27:06 10° ENE daylight
12 Dec - 16:57:52 10° WNW 17:00:49 29° N 17:03:48 10° ENE visible
12 Dec - 18:34:33 10° WNW 18:37:47 50° NNE 18:41:01 10° E visible
12 Dec - 20:11:11 10° WNW 20:14:12 33° SW 20:17:13 10° SSE visible
13 Dec - 12:53:14 10° S 12:55:37 19° SE 12:58:01 10° E daylight
13 Dec - 14:28:31 10° WSW 14:31:48 75° NNW 14:35:06 10° ENE daylight
13 Dec - 16:05:39 10° WNW 16:08:38 31° N 16:11:38 10° ENE daylight
13 Dec - 17:42:31 10° WNW 17:45:39 38° NNE 17:48:47 10° E visible
13 Dec - 19:19:01 10° WNW 19:22:17 57° SSW 19:25:31 10° SE visible
14 Dec - 12:02:58 10° SSE 12:03:49 11° SE 12:04:41 10° ESE daylight
14 Dec - 13:36:30 10° SW 13:39:46 68° SSE 13:43:03 10° ENE daylight
14 Dec - 15:13:22 10° W 15:16:27 35° NNW 15:19:32 10° ENE daylight
14 Dec - 16:50:27 10° WNW 16:53:29 32° N 16:56:30 10° ENE visible
14 Dec - 18:26:57 10° WNW 18:30:16 87° NNE 18:33:34 10° ESE visible
14 Dec - 20:04:16 10° W 20:06:23 16° SW 20:08:30 10° S visible
15 Dec - 12:44:43 10° SW 12:47:48 39° SE 12:50:54 10° ENE daylight
15 Dec - 14:21:06 10° W 14:24:17 45° NNW 14:27:28 10° ENE daylight
15 Dec - 15:58:18 10° WNW 16:01:16 30° N 16:04:14 10° ENE daylight
15 Dec - 17:34:55 10° WNW 17:38:11 57° NNE 17:41:27 10° ESE visible
15 Dec - 19:11:40 10° W 19:14:31 27° SW 19:17:22 10° SSE visible
16 Dec - 11:53:14 10° SSW 11:55:53 23° SE 11:58:33 10° E daylight
16 Dec - 13:28:53 10° WSW 13:32:09 64° NNW 13:35:26 10° ENE daylight
16 Dec - 15:06:04 10° WNW 15:09:02 30° N 15:12:00 10° ENE daylight
16 Dec - 16:42:52 10° WNW 16:46:02 41° NNE 16:49:12 10° E daylight
16 Dec - 18:19:23 10° WNW 18:22:34 46° SW 18:25:46 10° SE visible
17 Dec - 11:02:21 10° SSE 11:04:02 13° SE 11:05:43 10° ESE daylight
17 Dec - 12:36:48 10° WSW 12:40:03 82° SSE 12:43:22 10° ENE daylight
17 Dec - 14:13:46 10° WNW 14:16:48 33° N 14:19:51 10° ENE daylight
17 Dec - 15:50:46 10° WNW 15:53:50 34° N 15:56:53 10° ENE daylight
17 Dec - 17:27:15 10° WNW 17:30:33 79° SSW 17:33:51 10° ESE visible
17 Dec - 19:04:58 10° WSW 19:06:34 13° SW 19:08:10 10° SSW visible
18 Dec - 11:44:52 10° SW 11:48:02 48° SE 11:51:13 10° ENE daylight
18 Dec - 13:21:27 10° W 13:24:35 40° NNW 13:27:44 10° ENE daylight
18 Dec - 14:58:37 10° WNW 15:01:36 30° N 15:04:34 10° ENE daylight
18 Dec - 16:35:10 10° WNW 16:38:27 66° NNE 16:41:45 10° ESE daylight
18 Dec - 18:12:04 10° W 18:14:43 22° SW 18:17:20 10° S visible
19 Dec - 10:53:12 10° SSW 10:56:03 28° SE 10:58:55 10° E daylight
19 Dec - 12:29:10 10° W 12:32:24 55° NNW 12:35:39 10° ENE daylight
19 Dec - 14:06:23 10° WNW 14:09:19 29° N 14:12:17 10° ENE daylight
19 Dec - 15:43:05 10° WNW 15:46:17 46° NNE 15:49:30 10° E daylight
19 Dec - 17:19:40 10° WNW 17:22:46 37° SW 17:25:51 10° SSE visible
